[[{"header":{"parameterUnit":"m.s-1","parameterCategory":1,"la1":30.2991,"la2":30.254,"lo1":-89.0895,"lo2":-89.0444,"dy":0.0017,"dx":0.0017,"nx":28,"ny":28,"refTime":"2023-09-18T21:00:00:Z","depth":0,"parameterNumber":2,"parameterNumberName":"U-component_of_WINDS"},"data":[0,0,0,0,0,0,0,0,0,0,0,0,0,0,0,0,0,0,0,0,0,0,0,0,0,0,0,0,0,0,0,0,0,0,0,0,0,0,0,0,0,0,0,0,0,0,0,0,0,0,0,0,0,0,0,0,0,0,-2.0124,-2.0125,0,-2.018,-2.0181,-2.0181,-2.0124,-2.0121,-2.0119,-2.0117,-2.0175,-2.0179,-2.0183,0,0,0,0,0,0,0,0,0,0,0,0,0,-1.9969,-1.9972,-2.0124,-2.0125,-2.0125,-2.018,-2.0181,-2.0181,-2.0124,-2.0121,-2.0119,-2.0116,-2.0174,-2.0179,-2.0183,0,0,0,0,0,0,0,0,0,0,0,0,0,-2.0032,-1.9973,-2.0124,-2.0103,-2.0102,-2.018,-2.0181,-2.0182,-2.0125,-2.0121,-2.0118,-2.0115,-2.0173,-2.0178,-2.0184,-2.0285,0,0,-2.02,-2.0203,0,0,0,0,0,0,0,0,-2.0028,-2.0037,-2.0106,-2.0105,-2.0103,-2.0141,-2.0147,-2.0216,-2.0125,-2.0116,-2.0117,-2.0113,-2.0167,-2.0173,-2.0191,-2.0287,-2.029,-2.0201,-2.0204,-2.0206,-2.0208,0,0,0,0,0,0,0,-2.0024,-2.0035,-2.0146,-2.0107,-2.0105,-2.0092,-2.0097,-2.016,-2.016,-2.0117,-2.0113,-2.012,-2.0166,-2.0185,-2.0192,-2.0291,-2.0201,-2.0205,-2.0209,-2.0211,-2.0474,-2.0478,0,0,0,0,0,0,-2.0022,-2.0031,-2.0144,-2.0148,-2.0057,-2.0097,-2.0103,-2.0133,-2.0159,-2.016,-2.0123,-2.0117,-2.0178,-2.0185,-2.0193,-2.0313,-2.0206,-2.0212,-2.0215,-2.047,-2.0475,-2.0479,0,0,0,0,0,0,-2.0018,-2.0032,-2.0142,-2.0089,-2.0101,-2.0103,-2.0137,-2.0136,-2.0155,-2.0163,-2.0163,-2.0143,-2.0175,-2.0186,-2.0262,-2.0314,-2.0214,-2.0219,-2.0466,-2.0472,-2.0477,-2.0554,0,0,0,0,0,0,-2.0014,-2.0031,-2.0069,-2.009,-2.0105,-2.021,-2.014,-2.0139,-2.0165,-2.0158,-2.0182,-2.0183,-2.0174,-2.0255,-2.0268,-2.032,-2.0223,-2.0461,-2.0469,-2.0475,-2.0547,-2.0561,-2.0574,0,0,0,0,0,-2.0009,-2.0089,-2.0072,-2.0085,-2.0152,-2.0213,-2.0221,-2.0208,-2.0169,-2.0207,-2.0213,-2.0182,-2.0307,-2.0263,-2.0277,-2.0332,-2.0458,-2.0467,-2.0475,-2.0541,-2.0559,-2.0574,0,0,0,0,0,0,-2.0074,-2.0091,-2.0072,-2.0161,-2.0186,-2.0203,-2.0251,-2.0228,-2.0264,-2.0256,-2.0239,-2.0245,-2.0327,-2.0337,-2.0288,-2.0432,-2.0376,-2.0388,-2.0421,-2.0439,-2.0452,-2.0447,-2.0228,0,0,0,0,0,-2.0099,-2.0147,-2.0159,-2.0237,-2.025,-2.0249,-2.0275,-2.0263,-2.0288,-2.0298,-2.0309,-2.0335,-2.038,-2.041,-2.0452,-2.0549,-2.0553,-2.0594,-2.0607,-2.0619,-2.0628,-2.068,-2.0698,-2.0506,-2.0506,-2.0506,0,0,-2.0151,-2.0166,-2.0197,-2.025,-2.0268,-2.0318,-2.0258,-2.0313,-2.035,-2.0307,-2.0379,-2.0389,-2.0417,-2.0504,-2.0543,-2.0516,-2.0683,-2.0629,-2.0638,-2.0642,-2.0691,-2.0709,-2.0725,-2.0512,-2.0511,-2.051,0,0,-2.027,-2.0287,-2.0352,-2.0372,-2.04,-2.0399,-2.0415,-2.0436,-2.044,-2.0513,-2.0482,-2.0527,-2.0604,-2.0626,-2.0647,-2.0776,-2.0749,-2.0791,-2.0861,-2.0912,-2.0927,-2.0941,-2.0986,-2.1003,-2.0801,-2.0801,-2.0801,0,-2.033,-2.0404,-2.0389,-2.0447,-2.0472,-2.0435,-2.0502,-2.0522,-2.0563,-2.0581,-2.0549,-2.0647,-2.0663,-2.0755,-2.0787,-2.0805,-2.0823,-2.0787,-2.0926,-2.094,-2.0952,-2.0995,-2.1012,-2.0806,-2.0805,-2.0805,-2.0804,0,-2.0477,-2.0529,-2.0579,-2.0619,-2.0649,-2.0711,-2.0707,-2.074,-2.0726,-2.0728,-2.0804,-2.0822,-2.0867,-2.0889,-2.0876,-2.0979,-2.0961,-2.0929,-2.0872,-2.0975,-2.1015,-2.1032,-2.0813,-2.0811,-2.0809,-2.0808,0,0,-2.0636,-2.0669,-2.0687,-2.0705,-2.0734,-2.0774,-2.0836,-2.088,-2.0908,-2.0938,-2.0989,-2.1057,-2.1027,-2.1051,-2.1041,-2.1086,-2.1186,-2.1047,-2.1048,-2.1072,-2.1301,-2.1324,-2.1344,-2.117,-2.1173,-2.1175,-2.1298,0,-2.0755,-2.0861,-2.085,-2.0951,-2.0999,-2.0966,-2.1019,-2.1043,-2.1048,-2.109,-2.1095,-2.1143,-2.11,-2.1115,-2.1158,-2.1165,-2.1232,-2.1156,-2.1217,-2.1219,-2.1209,-2.1365,-2.1389,-2.1504,-2.1314,-2.1317,-2.1319,0,-2.0908,-2.0943,-2.1048,-2.1071,-2.109,-2.1138,-2.1178,-2.1219,-2.1246,-2.1246,-2.1274,-2.1256,-2.1319,-2.1263,-2.1348,-2.1297,-2.1322,-2.1329,-2.1334,-2.1337,-2.1274,-2.1371,-2.154,-2.1557,-2.1344,-2.1342,-2.134,0,-2.1012,-2.1086,-2.1159,-2.1175,-2.1204,-2.1238,-2.1252,-2.1276,-2.1303,-2.1339,-2.1356,-2.1399,-2.1422,-2.1456,-2.1451,-2.141,-2.1538,-2.1482,-2.154,-2.154,-2.1567,-2.1565,-2.1741,-2.1586,-2.1585,-2.1585,-2.1585,0,-2.1145,-2.1211,-2.1206,-2.125,-2.1323,-2.1312,-2.1384,-2.1393,-2.1415,-2.1461,-2.1437,-2.1481,-2.1471,-2.1516,-2.1512,-2.1584,-2.1595,-2.1597,-2.1595,-2.1598,-2.1598,-2.1612,-2.1604,-2.159,-2.1589,-2.1588,-2.1587,0,-2.1273,-2.1273,-2.135,-2.1371,-2.1378,-2.143,-2.1448,-2.1491,-2.1494,-2.1553,-2.1566,-2.1571,-2.1622,-2.1621,-2.1679,-2.1676,-2.1764,-2.1754,-2.1754,-2.1752,-2.181,-2.1804,-2.2,-2.2025,-2.1855,-2.1857,-2.1858,0,-2.1357,-2.1407,-2.1434,-2.1462,-2.1478,-2.1525,-2.1553,-2.1545,-2.1575,-2.1611,-2.1649,-2.1697,-2.1735,-2.1819,-2.1828,-2.1872,-2.1862,-2.1928,-2.1868,-2.187,-2.1862,-2.1858,-2.1863,-2.1939,-2.1941,-2.1942,-2.1943,0,-2.1506,-2.1504,-2.1545,-2.1587,-2.1621,-2.1653,-2.1683,-2.1708,-2.1703,-2.1739,-2.179,-2.182,-2.1879,-2.1928,-2.1971,-2.1985,-2.1964,-2.1962,-2.1978,-2.1981,-2.1979,-2.198,-2.1785,-2.1957,-2.1956,-2.1955,-2.1954,-2.1954,-2.1614,-2.1656,-2.1682,-2.1729,-2.175,-2.1779,-2.182,-2.1829,-2.1871,-2.1918,-2.1911,-2.1969,-2.1996,-2.2052,-2.2071,-2.2116,-2.2093,-2.2116,-2.2121,-2.2127,-2.2133,-2.1973,-2.2124,-2.2124,-2.2123,-2.2123,-2.2123,0,-2.176,-2.1775,-2.1819,-2.1861,-2.1899,-2.1876,-2.1908,-2.194,-2.1991,-2.2019,-2.2057,-2.2117,-2.2164,-2.2178,-2.2224,-2.2258,-2.2249,-2.227,-2.2266,-2.227,-2.2151,-2.2132,-2.2276,-2.2276,-2.2276,-2.2276,-2.2276,-2.2276,-2.184,-2.1911,-2.1912,-2.1994,-2.2009,-2.2065,-2.2085,-2.2112,-2.2133,-2.2201,-2.224,-2.2249,-2.2271,-2.2319,-2.2362,-2.2364,-2.2382,-2.2407,-2.2406,-2.2294,-2.2279,-2.2264,-2.2246,-2.2411,-2.2411,-2.2521,-2.2522,-2.2523]},{"header":{"parameterUnit":"m.s-1","parameterCategory":1,"la1":30.2991,"la2":30.254,"lo1":-89.0895,"lo2":-89.0444,"dy":0.0017,"dx":0.0017,"nx":28,"ny":28,"refTime":"2023-09-18T21:00:00:Z","depth":0,"parameterNumber":3,"parameterNumberName":"V-component_of_WINDS"},"data":[0,0,0,0,0,0,0,0,0,0,0,0,0,0,0,0,0,0,0,0,0,0,0,0,0,0,0,0,0,0,0,0,0,0,0,0,0,0,0,0,0,0,0,0,0,0,0,0,0,0,0,0,0,0,0,0,0,0,-2.1669,-2.1669,0,-2.169,-2.1691,-2.1691,-2.1698,-2.1698,-2.1698,-2.1698,-2.172,-2.172,-2.1721,0,0,0,0,0,0,0,0,0,0,0,0,0,-2.1631,-2.1632,-2.1669,-2.1669,-2.1669,-2.169,-2.1691,-2.1691,-2.1699,-2.1698,-2.1698,-2.1698,-2.172,-2.172,-2.1721,0,0,0,0,0,0,0,0,0,0,0,0,0,-2.1649,-2.1632,-2.1669,-2.1675,-2.1676,-2.169,-2.1691,-2.1691,-2.1699,-2.1698,-2.1698,-2.1698,-2.1719,-2.172,-2.1721,-2.173,0,0,-2.1724,-2.1725,0,0,0,0,0,0,0,0,-2.1648,-2.1651,-2.1674,-2.1675,-2.1676,-2.1692,-2.1685,-2.1704,-2.1699,-2.169,-2.1698,-2.1698,-2.171,-2.1712,-2.1717,-2.1731,-2.1732,-2.1724,-2.1725,-2.1725,-2.1726,0,0,0,0,0,0,0,-2.1647,-2.165,-2.1677,-2.1674,-2.1676,-2.1677,-2.1679,-2.1689,-2.1701,-2.1691,-2.1691,-2.1694,-2.1711,-2.1716,-2.1717,-2.1732,-2.1724,-2.1725,-2.1726,-2.1726,-2.1752,-2.1752,0,0,0,0,0,0,-2.1645,-2.1649,-2.1677,-2.1678,-2.1662,-2.1677,-2.168,-2.1687,-2.1701,-2.1703,-2.1694,-2.1694,-2.1714,-2.1716,-2.1718,-2.1727,-2.1725,-2.1726,-2.1727,-2.1752,-2.1752,-2.1752,0,0,0,0,0,0,-2.1644,-2.1647,-2.1676,-2.1664,-2.1667,-2.1678,-2.1685,-2.1687,-2.1692,-2.1703,-2.1705,-2.1697,-2.1714,-2.1717,-2.1726,-2.1728,-2.1727,-2.1728,-2.1752,-2.1752,-2.1752,-2.1748,0,0,0,0,0,0,-2.1643,-2.1647,-2.1651,-2.1664,-2.1668,-2.1685,-2.1686,-2.1688,-2.1694,-2.1694,-2.1706,-2.1708,-2.1714,-2.1725,-2.1727,-2.173,-2.1728,-2.1752,-2.1752,-2.1752,-2.1748,-2.1748,-2.1747,0,0,0,0,0,-2.1642,-2.1649,-2.1651,-2.1655,-2.1673,-2.1685,-2.1687,-2.1694,-2.1694,-2.1697,-2.1704,-2.1708,-2.1728,-2.1726,-2.1729,-2.1731,-2.1752,-2.1752,-2.1752,-2.1748,-2.1748,-2.1747,0,0,0,0,0,0,-2.1637,-2.1651,-2.1654,-2.1666,-2.1674,-2.1686,-2.1691,-2.1694,-2.1703,-2.1703,-2.1711,-2.1713,-2.1722,-2.1728,-2.1725,-2.1739,-2.174,-2.1741,-2.1735,-2.1735,-2.1735,-2.1734,-2.1729,0,0,0,0,0,-2.1637,-2.1646,-2.1658,-2.1667,-2.1671,-2.168,-2.1685,-2.169,-2.1699,-2.1702,-2.171,-2.1718,-2.1726,-2.1731,-2.1739,-2.1748,-2.175,-2.1751,-2.1751,-2.1751,-2.1752,-2.1755,-2.1755,-2.1753,-2.1753,-2.1753,0,0,-2.1639,-2.1647,-2.1652,-2.1666,-2.1673,-2.1681,-2.1683,-2.1692,-2.1697,-2.1703,-2.1713,-2.1719,-2.1728,-2.1737,-2.1741,-2.1742,-2.1753,-2.1751,-2.1751,-2.1752,-2.1755,-2.1756,-2.1756,-2.1753,-2.1753,-2.1753,0,0,-2.1644,-2.1652,-2.166,-2.1666,-2.1676,-2.1682,-2.1684,-2.1695,-2.1699,-2.1709,-2.1713,-2.1719,-2.1733,-2.1739,-2.1744,-2.1749,-2.1752,-2.1751,-2.1751,-2.1754,-2.1754,-2.1755,-2.1755,-2.1756,-2.1752,-2.1752,-2.1752,0,-2.1644,-2.1656,-2.1663,-2.1671,-2.1676,-2.1682,-2.1689,-2.1695,-2.1707,-2.171,-2.1711,-2.1727,-2.1734,-2.1744,-2.1745,-2.1749,-2.175,-2.175,-2.1754,-2.1754,-2.1754,-2.1755,-2.1756,-2.1751,-2.1751,-2.1751,-2.1752,0,-2.1655,-2.1663,-2.1668,-2.1679,-2.1685,-2.1693,-2.17,-2.1705,-2.1708,-2.1713,-2.1722,-2.173,-2.1739,-2.1741,-2.1745,-2.1751,-2.1751,-2.1752,-2.1753,-2.1754,-2.1755,-2.1756,-2.1751,-2.1751,-2.1751,-2.1751,0,0,-2.166,-2.1673,-2.1675,-2.1679,-2.1689,-2.1695,-2.1702,-2.1711,-2.1714,-2.1722,-2.1727,-2.1738,-2.1739,-2.1744,-2.1748,-2.1751,-2.1753,-2.1752,-2.1753,-2.1751,-2.1758,-2.1757,-2.1757,-2.1755,-2.1755,-2.1755,-2.1757,0,-2.1666,-2.1679,-2.1684,-2.1694,-2.1701,-2.1705,-2.1711,-2.1717,-2.1722,-2.1727,-2.1732,-2.1739,-2.1741,-2.1744,-2.1747,-2.1752,-2.1754,-2.1752,-2.1759,-2.1759,-2.1756,-2.1758,-2.1756,-2.1758,-2.1758,-2.1758,-2.1758,0,-2.1675,-2.1682,-2.1692,-2.17,-2.1703,-2.1709,-2.1716,-2.1721,-2.1728,-2.1731,-2.1736,-2.174,-2.1746,-2.1746,-2.1754,-2.1752,-2.1755,-2.1757,-2.1758,-2.1758,-2.1758,-2.1758,-2.1759,-2.1759,-2.1758,-2.1758,-2.1758,0,-2.1676,-2.1688,-2.1695,-2.1699,-2.1709,-2.1712,-2.1716,-2.1722,-2.1727,-2.1733,-2.1735,-2.1742,-2.1745,-2.175,-2.1755,-2.1754,-2.1761,-2.1762,-2.1763,-2.1763,-2.1765,-2.1764,-2.1766,-2.1767,-2.1767,-2.1767,-2.1767,0,-2.1682,-2.1688,-2.1695,-2.17,-2.1706,-2.1712,-2.1717,-2.1722,-2.1727,-2.1732,-2.1736,-2.174,-2.1746,-2.1751,-2.1755,-2.176,-2.1762,-2.1763,-2.1764,-2.1763,-2.1762,-2.1765,-2.1765,-2.1767,-2.1767,-2.1767,-2.1767,0,-2.1684,-2.1689,-2.1697,-2.1705,-2.1707,-2.1711,-2.1718,-2.1722,-2.1726,-2.1732,-2.1733,-2.174,-2.1745,-2.175,-2.1758,-2.176,-2.1765,-2.1766,-2.1762,-2.1763,-2.1763,-2.1763,-2.1766,-2.1766,-2.1768,-2.1768,-2.1768,0,-2.1687,-2.1692,-2.17,-2.1703,-2.1707,-2.1712,-2.1716,-2.1721,-2.1725,-2.1732,-2.1734,-2.174,-2.1745,-2.1753,-2.1758,-2.1763,-2.1764,-2.1765,-2.1765,-2.1763,-2.1763,-2.1763,-2.1763,-2.1765,-2.1765,-2.1765,-2.1765,0,-2.1692,-2.1694,-2.17,-2.1705,-2.171,-2.1714,-2.1719,-2.1722,-2.1728,-2.1731,-2.1737,-2.174,-2.1747,-2.1752,-2.1758,-2.1761,-2.1763,-2.1764,-2.1765,-2.1763,-2.1761,-2.1761,-2.1761,-2.1764,-2.1765,-2.1765,-2.1765,-2.1765,-2.1694,-2.1698,-2.1703,-2.1709,-2.1713,-2.1717,-2.172,-2.1724,-2.1729,-2.1735,-2.1737,-2.1742,-2.1747,-2.1755,-2.1758,-2.1762,-2.1762,-2.1763,-2.1763,-2.1763,-2.1762,-2.176,-2.1763,-2.1763,-2.1763,-2.1763,-2.1763,0,-2.1698,-2.1702,-2.1707,-2.1713,-2.1717,-2.1718,-2.1723,-2.1726,-2.1731,-2.1735,-2.1739,-2.1745,-2.1749,-2.1754,-2.1758,-2.176,-2.1761,-2.1761,-2.1761,-2.1761,-2.1762,-2.1761,-2.176,-2.176,-2.176,-2.176,-2.176,-2.176,-2.1701,-2.1706,-2.1709,-2.1716,-2.1719,-2.1724,-2.1726,-2.173,-2.1733,-2.1739,-2.1742,-2.1745,-2.1749,-2.1754,-2.1757,-2.1759,-2.176,-2.1759,-2.1761,-2.1761,-2.1761,-2.1762,-2.1761,-2.176,-2.176,-2.176,-2.176,-2.176]}]]